Year,Month,Day,Hour,Minute,Value (Times are PST for temperature in C)
2009,10,15,12,36,13.40
2009,10,15,12,37,13.40
2009,10,15,12,38,13.40
2009,10,15,12,39,13.40
2009,10,15,12,40,13.50
2009,10,15,12,41,13.60
2009,10,15,12,42,13.60
2009,10,15,12,43,13.60
2009,10,15,12,44,13.60
2009,10,15,12,45,13.70
2009,10,15,12,46,13.70
2009,10,15,12,47,13.70
2009,10,15,12,48,13.70
2009,10,15,12,49,13.80
2009,10,15,12,50,13.80
2009,10,15,12,51,13.80
2009,10,15,12,52,13.80
2009,10,15,12,53,13.80
2009,10,15,12,54,13.80
2009,10,15,12,55,13.80
2009,10,15,12,56,13.80
2009,10,15,12,57,13.80
2009,10,15,12,58,13.80
2009,10,15,12,59,13.80
2009,10,15,13,00,13.80
2009,10,15,13,01,13.90
2009,10,15,13,02,13.90
2009,10,15,13,03,13.90
2009,10,15,13,04,13.90
2009,10,15,13,05,13.90
2009,10,15,13,06,14.00
2009,10,15,13,07,14.00
2009,10,15,13,08,14.00
2009,10,15,13,09,13.90
2009,10,15,13,10,13.90
2009,10,15,13,11,13.90
2009,10,15,13,12,13.90
2009,10,15,13,13,14.00
2009,10,15,13,14,14.00
2009,10,15,13,15,13.90
2009,10,15,13,16,13.90
2009,10,15,13,17,13.90
2009,10,15,13,18,13.90
2009,10,15,13,19,13.90
2009,10,15,13,20,14.00
2009,10,15,13,21,14.10
2009,10,15,13,22,14.10
2009,10,15,13,23,14.10
2009,10,15,13,24,14.20
2009,10,15,13,25,14.20
2009,10,15,13,26,14.20
2009,10,15,13,27,14.20
2009,10,15,13,28,14.20
2009,10,15,13,29,14.20
2009,10,15,13,30,14.20
2009,10,15,13,31,14.20
2009,10,15,13,32,14.30
2009,10,15,13,33,14.30
2009,10,15,13,34,14.30
2009,10,15,13,35,14.30
2009,10,15,13,36,14.20
2009,10,15,13,37,14.20
2009,10,15,13,38,14.20
2009,10,15,13,39,14.10
2009,10,15,13,40,14.10
2009,10,15,13,41,14.10
2009,10,15,13,42,14.10
2009,10,15,13,43,14.10
2009,10,15,13,44,14.10
2009,10,15,13,45,14.10
2009,10,15,13,46,14.10
2009,10,15,13,47,14.10
2009,10,15,13,48,14.10
2009,10,15,13,49,14.00
2009,10,15,13,50,14.00
2009,10,15,13,51,13.90
2009,10,15,13,52,13.90
2009,10,15,13,53,13.80
2009,10,15,13,54,13.80
2009,10,15,13,55,13.80
2009,10,15,13,56,13.70
2009,10,15,13,57,13.70
2009,10,15,13,58,13.70
2009,10,15,13,59,13.70
2009,10,15,14,00,13.70
2009,10,15,14,01,13.70
2009,10,15,14,02,13.70
2009,10,15,14,03,13.80
2009,10,15,14,04,13.80
2009,10,15,14,05,13.80
2009,10,15,14,06,13.80
2009,10,15,14,07,13.80
2009,10,15,14,08,13.80
2009,10,15,14,09,13.80
2009,10,15,14,10,13.80
2009,10,15,14,11,13.80
2009,10,15,14,12,13.80
2009,10,15,14,13,13.80
2009,10,15,14,14,13.90
2009,10,15,14,15,13.90
2009,10,15,14,16,13.90
2009,10,15,14,17,14.00
2009,10,15,14,18,14.00
2009,10,15,14,19,14.00
2009,10,15,14,20,14.00
2009,10,15,14,21,14.00
2009,10,15,14,22,14.00
2009,10,15,14,23,14.10
2009,10,15,14,24,14.10
2009,10,15,14,25,14.10
2009,10,15,14,26,14.10
2009,10,15,14,27,14.10
2009,10,15,14,28,14.10
2009,10,15,14,29,14.10
2009,10,15,14,30,14.20
2009,10,15,14,31,14.20
2009,10,15,14,32,14.20
2009,10,15,14,33,14.20
2009,10,15,14,34,14.20
2009,10,15,14,35,14.20
2009,10,15,14,36,14.20
2009,10,15,14,37,14.20
2009,10,15,14,38,14.30
2009,10,15,14,39,14.30
2009,10,15,14,40,14.30
2009,10,15,14,41,14.30
2009,10,15,14,42,14.30
2009,10,15,14,43,14.30
2009,10,15,14,44,14.30
2009,10,15,14,45,14.30
2009,10,15,14,46,14.20
2009,10,15,14,47,14.20
2009,10,15,14,48,14.20
2009,10,15,14,49,14.20
2009,10,15,14,50,14.20
2009,10,15,14,51,14.20
2009,10,15,14,52,14.20
2009,10,15,14,53,14.20
2009,10,15,14,54,14.20
2009,10,15,14,55,14.20
2009,10,15,14,56,14.20
2009,10,15,14,57,14.20
2009,10,15,14,58,14.20
2009,10,15,14,59,14.20
2009,10,15,15,00,14.20
2009,10,15,15,01,14.30
2009,10,15,15,02,14.30
2009,10,15,15,03,14.30
2009,10,15,15,04,14.30
2009,10,15,15,05,14.30
2009,10,15,15,06,14.40
2009,10,15,15,07,14.40
2009,10,15,15,08,14.40
2009,10,15,15,09,14.40
2009,10,15,15,10,14.40
2009,10,15,15,11,14.30
2009,10,15,15,12,14.30
2009,10,15,15,13,14.30
2009,10,15,15,14,14.30
2009,10,15,15,15,14.30
2009,10,15,15,16,14.30
2009,10,15,15,17,14.30
2009,10,15,15,18,14.30
2009,10,15,15,19,14.30
2009,10,15,15,20,14.30
2009,10,15,15,21,14.30
2009,10,15,15,22,14.30
2009,10,15,15,23,14.30
2009,10,15,15,24,14.30
2009,10,15,15,25,14.30
2009,10,15,15,26,14.40
2009,10,15,15,27,14.40
2009,10,15,15,28,14.40
2009,10,15,15,29,14.40
2009,10,15,15,30,14.40
2009,10,15,15,31,14.40
2009,10,15,15,32,14.40
2009,10,15,15,33,14.40
2009,10,15,15,34,14.40
2009,10,15,15,35,14.40
2009,10,15,15,36,14.40
2009,10,15,15,37,14.40
2009,10,15,15,38,14.30
2009,10,15,15,39,14.30
2009,10,15,15,40,14.20
2009,10,15,15,41,14.20
2009,10,15,15,42,14.20
2009,10,15,15,43,14.20
2009,10,15,15,44,14.10
2009,10,15,15,45,14.10
2009,10,15,15,46,14.10
2009,10,15,15,47,14.10
2009,10,15,15,48,14.10
2009,10,15,15,49,14.10
2009,10,15,15,50,14.10
2009,10,15,15,51,14.10
2009,10,15,15,52,14.10
2009,10,15,15,53,14.10
2009,10,15,15,54,14.10
2009,10,15,15,55,14.10
2009,10,15,15,56,14.20
2009,10,15,15,57,14.20
2009,10,15,15,58,14.20
2009,10,15,15,59,14.20
2009,10,15,16,00,14.20
2009,10,15,16,01,14.10
2009,10,15,16,02,14.10
2009,10,15,16,03,14.10
2009,10,15,16,04,14.10
2009,10,15,16,05,14.10
2009,10,15,16,06,14.10
2009,10,15,16,07,14.10
2009,10,15,16,08,14.10
2009,10,15,16,09,14.10
2009,10,15,16,10,14.10
2009,10,15,16,11,14.10
2009,10,15,16,12,14.10
2009,10,15,16,13,14.10
2009,10,15,16,14,14.10
2009,10,15,16,15,14.10
2009,10,15,16,16,14.10
2009,10,15,16,17,14.10
2009,10,15,16,18,14.10
2009,10,15,16,19,14.10
2009,10,15,16,20,14.10
2009,10,15,16,21,14.10
2009,10,15,16,22,14.10
2009,10,15,16,23,14.10
2009,10,15,16,24,14.10
2009,10,15,16,25,14.10
2009,10,15,16,26,14.10
2009,10,15,16,27,14.10
2009,10,15,16,28,14.10
2009,10,15,16,29,14.10
2009,10,15,16,30,14.10
2009,10,15,16,31,14.10
